Location: Caoba
(9.7667°N, 67.4833°W)
Time: 20:15:04
(UTC+00:00)

GOES 2 Rocket - Pass Details

Date: 12 December 2024
Orbit: 569 x 1662 km, 28.4° (Epoch: 14 January)

Event Time Altitude Azimuth Distance (km) Brightness Sun altitude
Rises 00:30:05 0° 246° (WSW) 4,768 8.7 -32.8°
Reaches altitude 10° 00:33:31 10° 247° (WSW) 3,684 7.8 -33.6°
Enters shadow 00:42:30 72° 304° (NW) 1,355 4.6 -35.6°
